Precipitable_Water
1.57 1.58 1.57 1.59 1.58 1.48 1.35 1.22 1.02 1.01 1.07 1.14 1.15 1.07 1.16 1.22 1.20 1.29 1.24 1.26 1.31 1.23 1.39 1.35 1.40 1.38 1.42 1.44 1.40 1.38 1.38 1.32 1.30 1.30 1.22 1.20 1.16 1.18 1.24 1.25 1.21 1.20 1.19 1.16 1.23 1.20 1.18 1.17 1.15 1.16 1.17 1.10 1.06 1.06 1.06 1.06 1.07 1.10 1.11 1.09 1.06 1.09 1.06 1.07 1.00 0.98 1.04 1.08 1.03 1.00 1.06 1.07 1.03 1.06 1.05 1.09 1.14 1.19 1.21 1.22 1.24 1.26 1.29 1.32 1.35
1.56 1.56 1.59 1.49 1.41 1.35 1.18 1.15 1.07 1.05 1.18 1.14 1.16 1.26 1.38 1.35 1.37 1.37 1.37 1.39 1.44 1.52 1.56 1.57 1.60 1.60 1.56 1.54 1.50 1.50 1.48 1.46 1.47 1.32 1.24 1.17 1.16 1.21 1.22 1.23 1.18 1.15 1.16 1.16 1.18 1.19 1.17 1.14 1.13 1.13 1.12 1.05 1.05 1.07 1.08 1.07 1.07 1.01 1.01 1.01 1.01 1.03 1.06 0.97 0.94 0.92 0.90 1.00 1.01 1.04 1.00 1.02 0.92 1.00 1.01 1.04 1.05 1.08 1.07 1.09 1.12 1.16 1.18 1.21 1.23
1.67 1.53 1.41 1.40 1.34 1.24 1.14 1.13 1.13 1.26 1.37 1.38 1.35 1.40 1.37 1.43 1.49 1.49 1.49 1.58 1.68 1.69 1.66 1.68 1.69 1.66 1.65 1.66 1.68 1.66 1.59 1.63 1.57 1.47 1.31 1.20 1.16 1.18 1.21 1.20 1.15 1.13 1.10 1.10 1.09 1.11 1.09 1.08 1.06 1.07 1.07 1.03 1.02 1.02 1.05 1.04 1.02 0.94 0.96 1.01 0.99 0.96 0.98 1.04 1.02 0.97 0.96 0.97 1.03 0.98 0.96 1.00 1.00 1.02 1.06 1.07 1.06 1.06 1.02 1.03 1.04 1.08 1.12 1.15 1.16
1.50 1.42 1.38 1.29 1.19 1.17 1.17 1.20 1.32 1.42 1.46 1.50 1.48 1.48 1.51 1.51 1.58 1.51 1.58 1.72 1.70 1.73 1.76 1.76 1.76 1.75 1.70 1.68 1.72 1.72 1.73 1.70 1.63 1.50 1.28 1.18 1.13 1.11 1.10 1.09 1.07 1.03 1.00 0.99 1.01 1.00 0.99 0.96 0.98 1.00 1.01 0.99 0.99 0.98 0.96 0.99 1.01 1.02 1.03 1.05 1.05 1.03 1.04 1.05 1.10 1.06 1.06 0.97 1.01 1.00 1.04 1.05 1.11 1.16 1.16 1.15 1.11 1.08 1.06 1.06 1.09 1.06 1.04 1.03 1.06
1.42 1.37 1.31 1.17 1.18 1.21 1.25 1.31 1.41 1.51 1.52 1.55 1.55 1.55 1.56 1.54 1.65 1.68 1.70 1.77 1.76 1.78 1.79 1.79 1.78 1.76 1.72 1.70 1.70 1.71 1.72 1.64 1.52 1.33 1.16 1.07 1.01 0.96 0.97 0.96 0.94 0.93 0.94 0.95 0.95 0.95 0.94 0.94 0.97 0.97 0.96 0.93 0.95 0.96 0.99 1.00 1.03 1.02 1.01 1.05 1.05 1.07 1.06 1.05 1.07 1.10 1.04 0.98 0.99 1.07 1.12 1.11 1.14 1.15 1.17 1.13 1.15 1.16 1.10 1.06 1.07 1.08 1.10 1.09 1.05
1.35 1.23 1.15 1.16 1.25 1.30 1.34 1.39 1.45 1.50 1.54 1.56 1.53 1.58 1.64 1.67 1.72 1.77 1.82 1.77 1.76 1.80 1.82 1.79 1.83 1.80 1.75 1.75 1.73 1.70 1.64 1.42 1.30 1.12 1.01 0.93 0.84 0.75 0.71 0.75 0.78 0.79 0.80 0.82 0.85 0.88 0.88 0.88 0.90 0.92 0.90 0.88 0.88 0.91 0.96 0.96 0.95 0.95 0.95 0.95 0.95 0.98 0.97 0.97 1.01 1.02 1.03 1.00 0.99 0.99 1.07 1.07 1.10 1.14 1.17 1.17 1.13 1.09 1.06 1.09 1.12 1.13 1.11 1.09 1.09
1.17 1.14 1.20 1.29 1.36 1.38 1.39 1.46 1.50 1.51 1.59 1.62 1.62 1.62 1.70 1.75 1.77 1.80 1.79 1.74 1.75 1.77 1.75 1.69 1.74 1.69 1.66 1.64 1.61 1.49 1.21 1.17 1.08 1.00 0.96 0.90 0.84 0.75 0.65 0.68 0.71 0.74 0.77 0.82 0.85 0.87 0.90 0.91 0.90 0.89 0.87 0.87 0.88 0.91 0.92 0.92 0.92 0.91 0.94 0.93 0.93 0.91 0.89 0.90 0.92 0.89 0.89 0.90 0.93 0.97 0.96 1.03 1.07 0.99 1.07 1.18 1.20 1.16 1.05 1.01 1.04 1.15 1.18 1.18 1.14
1.16 1.24 1.35 1.39 1.40 1.46 1.53 1.55 1.56 1.61 1.63 1.64 1.67 1.69 1.77 1.80 1.80 1.79 1.75 1.71 1.70 1.75 1.68 1.66 1.66 1.61 1.57 1.48 1.41 1.27 1.03 1.07 1.00 0.97 0.96 0.88 0.84 0.76 0.65 0.63 0.68 0.72 0.74 0.76 0.82 0.86 0.86 0.84 0.85 0.88 0.88 0.89 0.89 0.87 0.85 0.84 0.85 0.81 0.84 0.85 0.84 0.81 0.80 0.80 0.80 0.81 0.82 0.82 0.82 0.82 0.86 0.88 0.91 0.97 1.06 1.08 1.02 1.01 1.06 1.06 1.00 1.03 1.12 1.22 1.23
1.28 1.39 1.42 1.43 1.47 1.54 1.56 1.56 1.63 1.62 1.63 1.62 1.65 1.70 1.72 1.76 1.73 1.72 1.64 1.71 1.70 1.67 1.65 1.63 1.58 1.50 1.40 1.30 1.17 1.07 1.04 0.97 0.98 0.96 0.92 0.86 0.85 0.77 0.69 0.64 0.62 0.66 0.70 0.74 0.79 0.80 0.81 0.84 0.82 0.84 0.87 0.88 0.88 0.87 0.86 0.86 0.82 0.79 0.84 0.85 0.78 0.75 0.79 0.85 0.86 0.84 0.82 0.81 0.79 0.83 0.82 0.82 0.84 0.84 0.83 0.85 0.85 0.89 1.03 1.09 1.05 1.08 1.12 1.12 1.17
1.39 1.43 1.45 1.50 1.54 1.57 1.56 1.59 1.58 1.60 1.59 1.66 1.64 1.66 1.70 1.72 1.77 1.71 1.67 1.70 1.71 1.71 1.64 1.52 1.44 1.37 1.23 1.17 1.04 0.93 0.98 1.01 0.99 0.95 0.91 0.87 0.82 0.77 0.71 0.61 0.58 0.63 0.65 0.67 0.73 0.79 0.81 0.80 0.81 0.80 0.80 0.79 0.76 0.75 0.75 0.79 0.85 0.88 0.88 0.86 0.86 0.90 0.93 0.90 0.88 0.87 0.84 0.80 0.79 0.81 0.78 0.78 0.81 0.85 0.85 0.87 0.89 0.90 0.89 0.93 0.89 0.96 1.05 1.07 1.11
1.45 1.45 1.46 1.52 1.55 1.56 1.57 1.56 1.58 1.56 1.60 1.62 1.64 1.62 1.62 1.66 1.65 1.63 1.69 1.63 1.57 1.58 1.53 1.42 1.36 1.21 1.12 1.00 0.93 0.90 0.94 1.00 0.94 0.91 0.88 0.86 0.80 0.72 0.59 0.51 0.54 0.56 0.60 0.66 0.71 0.76 0.77 0.79 0.78 0.78 0.79 0.77 0.76 0.79 0.83 0.85 0.88 0.91 0.95 1.00 1.02 1.00 0.96 0.96 0.96 0.97 0.93 0.91 0.94 0.95 0.94 0.92 0.93 0.95 0.93 0.92 0.94 0.95 0.95 0.95 0.90 0.88 0.88 0.90 0.89
1.48 1.49 1.51 1.53 1.53 1.54 1.57 1.59 1.56 1.57 1.59 1.60 1.60 1.60 1.60 1.55 1.54 1.49 1.58 1.68 1.65 1.63 1.52 1.40 1.24 1.10 0.98 0.96 0.92 0.91 0.98 0.95 0.93 0.91 0.86 0.79 0.71 0.58 0.49 0.48 0.51 0.56 0.62 0.68 0.70 0.70 0.70 0.73 0.77 0.78 0.75 0.75 0.80 0.85 0.88 0.91 0.94 0.98 1.02 1.05 1.08 1.12 1.14 1.11 1.06 1.03 1.03 1.01 1.00 1.02 1.03 1.01 1.02 1.04 1.04 1.05 1.05 1.05 1.04 1.02 0.98 0.93 0.88 0.88 0.93
1.46 1.48 1.50 1.50 1.54 1.54 1.59 1.58 1.57 1.58 1.58 1.57 1.55 1.58 1.53 1.49 1.44 1.54 1.59 1.54 1.52 1.47 1.37 1.19 1.10 1.01 0.96 0.95 0.94 0.94 0.98 0.96 0.91 0.84 0.74 0.69 0.60 0.49 0.45 0.50 0.52 0.59 0.64 0.66 0.67 0.70 0.72 0.71 0.69 0.67 0.70 0.80 0.90 0.94 0.97 1.03 1.10 1.14 1.17 1.19 1.20 1.22 1.22 1.23 1.24 1.22 1.20 1.14 1.11 1.08 1.08 1.08 1.06 1.09 1.16 1.17 1.21 1.12 1.13 1.10 1.10 1.06 1.02 0.94 0.94
1.46 1.48 1.50 1.52 1.54 1.57 1.59 1.57 1.56 1.55 1.64 1.59 1.54 1.48 1.49 1.50 1.52 1.56 1.60 1.52 1.40 1.32 1.21 1.12 1.01 0.96 0.96 0.96 0.97 0.97 0.96 0.92 0.81 0.73 0.68 0.59 0.50 0.44 0.44 0.52 0.56 0.58 0.61 0.63 0.64 0.63 0.60 0.58 0.60 0.71 0.86 0.94 1.00 1.07 1.10 1.12 1.15 1.17 1.19 1.21 1.21 1.23 1.24 1.24 1.24 1.25 1.25 1.21 1.17 1.11 1.17 1.21 1.15 1.19 1.25 1.28 1.23 1.18 1.18 1.16 1.21 1.18 1.15 1.10 1.13
1.44 1.48 1.49 1.53 1.58 1.58 1.57 1.58 1.54 1.61 1.60 1.60 1.57 1.52 1.44 1.57 1.61 1.58 1.53 1.39 1.27 1.15 1.04 0.94 0.98 0.96 0.99 0.99 0.93 0.88 0.91 0.81 0.71 0.62 0.59 0.54 0.46 0.36 0.37 0.43 0.45 0.48 0.51 0.51 0.49 0.48 0.55 0.65 0.78 0.87 0.95 0.99 1.10 1.08 1.10 1.12 1.15 1.17 1.19 1.20 1.23 1.25 1.26 1.27 1.28 1.28 1.28 1.27 1.24 1.22 1.23 1.25 1.25 1.26 1.28 1.29 1.26 1.25 1.26 1.24 1.24 1.24 1.25 1.25 1.22
1.45 1.51 1.52 1.53 1.56 1.56 1.55 1.54 1.58 1.56 1.58 1.50 1.50 1.47 1.44 1.52 1.48 1.48 1.39 1.25 1.10 1.01 0.99 1.00 0.98 0.97 0.96 0.93 0.86 0.79 0.76 0.68 0.64 0.63 0.60 0.53 0.40 0.29 0.31 0.33 0.35 0.36 0.38 0.41 0.45 0.52 0.63 0.74 0.82 0.88 0.93 0.99 1.10 1.13 1.17 1.20 1.17 1.17 1.18 1.20 1.21 1.23 1.23 1.27 1.28 1.28 1.27 1.26 1.25 1.23 1.23 1.24 1.24 1.24 1.25 1.26 1.27 1.29 1.30 1.31 1.31 1.27 1.22 1.14 1.07
1.46 1.53 1.51 1.53 1.53 1.54 1.52 1.54 1.54 1.47 1.49 1.51 1.44 1.49 1.53 1.57 1.51 1.35 1.18 1.08 0.99 0.96 0.96 0.93 0.96 0.92 0.88 0.84 0.77 0.67 0.63 0.70 0.69 0.65 0.57 0.48 0.40 0.34 0.28 0.28 0.31 0.32 0.35 0.40 0.46 0.58 0.75 0.90 0.99 1.04 1.10 1.19 1.21 1.24 1.25 1.25 1.19 1.15 1.14 1.14 1.15 1.15 1.16 1.23 1.26 1.26 1.24 1.23 1.22 1.21 1.20 1.19 1.19 1.21 1.22 1.25 1.26 1.29 1.26 1.19 1.16 1.22 1.16 1.07 1.07
1.52 1.52 1.53 1.52 1.54 1.52 1.57 1.56 1.50 1.45 1.38 1.41 1.49 1.56 1.48 1.37 1.29 1.18 1.03 0.99 0.97 0.95 0.98 0.96 0.90 0.84 0.81 0.74 0.68 0.51 0.67 0.71 0.67 0.58 0.51 0.47 0.46 0.40 0.36 0.36 0.38 0.43 0.46 0.53 0.64 0.79 0.96 1.11 1.19 1.22 1.26 1.25 1.28 1.30 1.30 1.29 1.22 1.17 1.13 1.10 1.09 1.10 1.15 1.21 1.21 1.20 1.21 1.20 1.20 1.20 1.20 1.18 1.17 1.17 1.19 1.22 1.26 1.29 1.23 1.11 1.18 1.22 1.14 1.13 1.07
1.50 1.51 1.53 1.60 1.58 1.57 1.57 1.58 1.59 1.45 1.48 1.53 1.43 1.38 1.32 1.22 1.13 1.05 0.93 0.96 0.99 1.01 0.91 0.86 0.80 0.75 0.70 0.61 0.60 0.60 0.66 0.65 0.62 0.55 0.51 0.49 0.50 0.48 0.45 0.43 0.46 0.49 0.52 0.58 0.74 0.89 1.03 1.16 1.25 1.31 1.31 1.32 1.33 1.33 1.31 1.30 1.25 1.20 1.16 1.11 1.08 1.09 1.13 1.16 1.14 1.12 1.13 1.13 1.14 1.15 1.15 1.17 1.18 1.18 1.19 1.22 1.25 1.29 1.31 1.27 1.27 1.22 1.16 1.17 1.20
1.59 1.59 1.62 1.64 1.64 1.58 1.58 1.49 1.45 1.43 1.41 1.44 1.34 1.25 1.17 1.05 0.99 0.95 0.97 0.93 0.93 0.90 0.83 0.78 0.66 0.59 0.57 0.59 0.63 0.66 0.61 0.64 0.62 0.59 0.54 0.52 0.53 0.54 0.51 0.44 0.44 0.47 0.52 0.59 0.67 0.79 0.88 0.95 1.10 1.24 1.33 1.35 1.34 1.33 1.32 1.31 1.26 1.23 1.19 1.12 1.09 1.07 1.15 1.15 1.17 1.17 1.16 1.14 1.15 1.18 1.19 1.22 1.24 1.24 1.23 1.23 1.25 1.30 1.33 1.35 1.33 1.29 1.24 1.25 1.27
1.61 1.63 1.66 1.66 1.66 1.60 1.56 1.51 1.47 1.45 1.38 1.26 1.20 1.11 1.04 0.99 0.98 0.95 0.92 0.90 0.84 0.76 0.69 0.59 0.57 0.58 0.61 0.65 0.67 0.63 0.61 0.60 0.70 0.61 0.58 0.55 0.57 0.56 0.54 0.47 0.44 0.46 0.49 0.54 0.59 0.62 0.69 0.75 0.85 1.02 1.14 1.22 1.24 1.27 1.29 1.30 1.29 1.26 1.23 1.16 1.14 1.16 1.21 1.20 1.22 1.24 1.21 1.19 1.18 1.19 1.21 1.24 1.26 1.28 1.27 1.26 1.26 1.30 1.36 1.39 1.39 1.37 1.31 1.26 1.25
1.65 1.64 1.66 1.64 1.60 1.60 1.59 1.47 1.37 1.26 1.21 1.12 0.99 0.98 0.93 1.00 0.97 0.93 0.88 0.79 0.71 0.66 0.58 0.57 0.58 0.59 0.62 0.66 0.62 0.61 0.64 0.66 0.64 0.67 0.59 0.59 0.60 0.57 0.53 0.49 0.46 0.44 0.47 0.49 0.52 0.56 0.62 0.69 0.73 0.83 0.96 1.05 1.10 1.21 1.29 1.31 1.31 1.29 1.26 1.25 1.24 1.24 1.24 1.27 1.28 1.27 1.25 1.25 1.23 1.21 1.22 1.23 1.25 1.27 1.29 1.30 1.31 1.32 1.33 1.36 1.38 1.38 1.38 1.35 1.28
1.65 1.65 1.61 1.59 1.57 1.51 1.41 1.26 1.19 1.13 1.03 1.03 1.00 0.97 0.95 0.93 0.90 0.82 0.72 0.66 0.60 0.58 0.50 0.57 0.59 0.54 0.59 0.61 0.62 0.63 0.65 0.67 0.65 0.59 0.61 0.62 0.57 0.54 0.51 0.46 0.40 0.44 0.48 0.47 0.50 0.56 0.62 0.66 0.69 0.69 0.67 0.69 0.78 0.98 1.18 1.29 1.32 1.33 1.33 1.31 1.29 1.28 1.28 1.28 1.28 1.27 1.26 1.26 1.25 1.24 1.25 1.25 1.25 1.26 1.30 1.32 1.37 1.39 1.40 1.41 1.40 1.40 1.39 1.39 1.38
1.64 1.65 1.61 1.57 1.43 1.29 1.18 1.09 0.99 1.00 1.02 0.98 0.88 0.93 0.89 0.77 0.86 0.53 0.62 0.69 0.62 0.61 0.55 0.59 0.56 0.54 0.55 0.56 0.58 0.58 0.59 0.57 0.53 0.61 0.65 0.59 0.54 0.49 0.41 0.34 0.35 0.45 0.50 0.51 0.53 0.56 0.58 0.60 0.60 0.58 0.58 0.62 0.70 0.83 0.96 1.06 1.15 1.21 1.24 1.24 1.22 1.24 1.25 1.26 1.26 1.26 1.26 1.25 1.24 1.24 1.25 1.28 1.30 1.29 1.32 1.37 1.40 1.43 1.44 1.46 1.45 1.45 1.43 1.41 1.42
1.65 1.57 1.46 1.29 1.09 0.94 1.00 1.01 0.98 1.01 0.99 0.96 0.91 0.88 0.80 0.84 0.74 0.54 0.62 0.68 0.67 0.55 0.53 0.55 0.47 0.48 0.49 0.46 0.44 0.43 0.42 0.41 0.55 0.62 0.61 0.54 0.44 0.34 0.25 0.28 0.38 0.46 0.47 0.50 0.54 0.55 0.54 0.55 0.57 0.66 0.72 0.75 0.78 0.82 0.86 0.90 0.93 0.95 0.98 1.03 1.09 1.09 1.11 1.11 1.12 1.16 1.18 1.21 1.23 1.26 1.27 1.30 1.32 1.34 1.41 1.45 1.46 1.47 1.46 1.48 1.51 1.51 1.52 1.51 1.49
1.46 1.24 1.07 1.03 1.04 1.08 1.06 1.08 1.05 1.04 0.99 0.92 0.86 0.79 0.68 0.74 0.61 0.60 0.61 0.61 0.54 0.46 0.39 0.37 0.37 0.39 0.37 0.36 0.34 0.32 0.35 0.42 0.53 0.50 0.44 0.35 0.23 0.21 0.26 0.34 0.41 0.44 0.46 0.46 0.49 0.51 0.57 0.62 0.68 0.73 0.76 0.78 0.81 0.84 0.88 0.93 0.96 1.00 1.02 1.04 1.03 1.02 1.00 0.97 1.01 1.07 1.08 1.13 1.18 1.22 1.27 1.32 1.34 1.40 1.43 1.44 1.43 1.42 1.44 1.43 1.44 1.46 1.49 1.49 1.48
1.14 1.02 1.08 1.13 1.07 1.07 1.03 1.03 1.05 1.03 0.93 0.92 0.88 0.73 0.69 0.65 0.61 0.56 0.47 0.40 0.35 0.31 0.30 0.31 0.32 0.30 0.27 0.27 0.27 0.29 0.31 0.35 0.41 0.33 0.25 0.22 0.23 0.28 0.35 0.37 0.40 0.40 0.42 0.51 0.56 0.60 0.66 0.73 0.80 0.84 0.92 0.99 1.04 1.09 1.13 1.18 1.19 1.20 1.18 1.15 1.10 1.07 1.05 1.05 1.06 1.07 1.10 1.16 1.18 1.21 1.27 1.35 1.41 1.41 1.39 1.39 1.38 1.42 1.47 1.46 1.44 1.44 1.46 1.48 1.44
1.08 1.11 1.10 1.01 0.82 0.76 0.70 0.75 0.83 0.78 0.69 0.63 0.60 0.58 0.50 0.46 0.52 0.47 0.39 0.27 0.21 0.22 0.22 0.26 0.25 0.23 0.21 0.22 0.24 0.25 0.23 0.27 0.28 0.23 0.24 0.27 0.30 0.35 0.36 0.38 0.40 0.48 0.54 0.61 0.66 0.77 0.86 0.92 0.99 1.05 1.08 1.08 1.10 1.10 1.12 1.16 1.20 1.22 1.22 1.23 1.21 1.16 1.12 1.12 1.12 1.13 1.13 1.17 1.21 1.24 1.28 1.33 1.32 1.34 1.35 1.34 1.35 1.40 1.45 1.43 1.40 1.40 1.43 1.44 1.37
1.13 0.99 0.86 0.85 0.86 0.85 0.73 0.66 0.64 0.66 0.67 0.69 0.61 0.41 0.30 0.34 0.41 0.38 0.37 0.32 0.26 0.24 0.22 0.23 0.24 0.22 0.20 0.22 0.22 0.19 0.21 0.22 0.25 0.28 0.29 0.32 0.37 0.39 0.41 0.47 0.55 0.60 0.65 0.74 0.82 0.89 0.94 0.95 0.92 0.94 0.93 0.89 0.89 0.91 0.95 0.97 1.01 1.07 1.10 1.13 1.16 1.20 1.21 1.19 1.15 1.15 1.18 1.20 1.21 1.21 1.19 1.23 1.24 1.27 1.29 1.30 1.33 1.36 1.44 1.42 1.44 1.40 1.40 1.40 1.33
0.97 0.92 0.86 0.77 0.75 0.72 0.66 0.63 0.59 0.69 0.74 0.72 0.62 0.49 0.47 0.48 0.48 0.48 0.45 0.42 0.37 0.36 0.34 0.32 0.32 0.30 0.23 0.26 0.27 0.25 0.26 0.29 0.30 0.30 0.37 0.42 0.46 0.50 0.55 0.59 0.63 0.67 0.78 0.84 0.88 0.86 0.86 0.84 0.85 0.85 0.84 0.84 0.82 0.82 0.84 0.88 0.91 0.94 0.99 1.03 1.05 1.06 1.09 1.12 1.16 1.19 1.21 1.20 1.21 1.19 1.17 1.17 1.17 1.21 1.22 1.22 1.26 1.31 1.37 1.37 1.35 1.38 1.33 1.31 1.29
0.91 0.85 0.75 0.71 0.70 0.72 0.72 0.66 0.57 0.56 0.55 0.54 0.53 0.51 0.50 0.56 0.56 0.57 0.51 0.45 0.43 0.41 0.40 0.39 0.39 0.38 0.34 0.32 0.35 0.36 0.34 0.30 0.33 0.42 0.46 0.50 0.54 0.57 0.60 0.63 0.70 0.80 0.84 0.85 0.82 0.81 0.81 0.82 0.83 0.84 0.85 0.84 0.84 0.84 0.90 0.91 0.93 0.95 0.98 1.01 1.05 1.05 1.06 1.06 1.08 1.08 1.09 1.10 1.11 1.11 1.12 1.12 1.12 1.14 1.13 1.16 1.19 1.23 1.27 1.31 1.31 1.31 1.29 1.29 1.27
0.78 0.71 0.67 0.68 0.67 0.64 0.65 0.70 0.66 0.55 0.46 0.45 0.44 0.50 0.56 0.53 0.52 0.53 0.53 0.50 0.49 0.46 0.43 0.45 0.44 0.42 0.39 0.39 0.37 0.35 0.32 0.32 0.44 0.48 0.51 0.56 0.58 0.62 0.68 0.74 0.82 0.87 0.88 0.86 0.77 0.81 0.85 0.85 0.85 0.83 0.83 0.83 0.86 0.89 0.91 0.93 0.95 0.96 0.98 0.99 1.00 1.04 1.04 1.03 1.05 1.04 1.03 1.02 1.00 0.99 1.00 1.00 1.00 0.99 0.98 1.00 1.03 1.06 1.09 1.12 1.16 1.18 1.21 1.24 1.26
0.74 0.68 0.63 0.63 0.64 0.66 0.63 0.56 0.55 0.59 0.56 0.56 0.52 0.56 0.50 0.41 0.41 0.46 0.57 0.54 0.52 0.50 0.48 0.49 0.47 0.44 0.43 0.42 0.41 0.36 0.30 0.42 0.49 0.53 0.56 0.59 0.63 0.70 0.78 0.83 0.88 0.89 0.86 0.83 0.80 0.82 0.84 0.85 0.84 0.85 0.85 0.83 0.86 0.87 0.89 0.92 0.95 0.99 1.04 1.06 1.07 1.10 1.11 1.12 1.13 1.09 1.06 1.04 1.03 1.02 1.03 1.03 1.03 1.01 1.01 1.02 1.01 0.98 0.98 0.98 1.02 1.08 1.11 1.11 1.16
0.73 0.69 0.63 0.60 0.62 0.61 0.62 0.63 0.59 0.55 0.51 0.49 0.51 0.52 0.48 0.41 0.46 0.47 0.46 0.46 0.54 0.53 0.53 0.53 0.48 0.46 0.46 0.44 0.41 0.34 0.37 0.50 0.54 0.59 0.57 0.63 0.72 0.78 0.84 0.86 0.88 0.89 0.86 0.82 0.81 0.79 0.81 0.83 0.85 0.84 0.81 0.83 0.85 0.87 0.88 0.92 0.97 1.01 1.07 1.11 1.14 1.16 1.16 1.19 1.17 1.16 1.15 1.16 1.15 1.15 1.16 1.16 1.17 1.16 1.16 1.15 1.13 1.11 1.09 1.08 1.06 1.02 0.99 1.01 1.04
0.69 0.69 0.70 0.70 0.69 0.67 0.63 0.58 0.54 0.52 0.47 0.49 0.47 0.44 0.44 0.47 0.43 0.44 0.43 0.43 0.42 0.38 0.42 0.52 0.51 0.52 0.48 0.45 0.39 0.35 0.47 0.56 0.59 0.62 0.60 0.69 0.78 0.83 0.87 0.86 0.82 0.84 0.86 0.85 0.82 0.80 0.78 0.80 0.79 0.78 0.78 0.81 0.83 0.86 0.88 0.93 0.98 1.02 1.06 1.10 1.15 1.17 1.18 1.19 1.19 1.20 1.19 1.19 1.18 1.16 1.16 1.15 1.15 1.14 1.12 1.09 1.08 1.07 1.07 1.08 1.09 1.09 1.08 1.08 1.07
0.65 0.62 0.61 0.60 0.57 0.57 0.48 0.45 0.45 0.43 0.43 0.47 0.42 0.39 0.48 0.46 0.40 0.42 0.43 0.43 0.42 0.38 0.42 0.47 0.46 0.55 0.51 0.44 0.36 0.44 0.52 0.61 0.64 0.65 0.63 0.75 0.83 0.86 0.80 0.80 0.79 0.81 0.80 0.79 0.79 0.79 0.80 0.79 0.77 0.78 0.80 0.82 0.85 0.87 0.91 0.93 0.98 1.02 1.07 1.10 1.13 1.16 1.17 1.18 1.18 1.18 1.17 1.16 1.15 1.14 1.14 1.13 1.12 1.11 1.10 1.08 1.06 1.05 1.06 1.06 1.06 1.07 1.08 1.09 1.11
0.72 0.70 0.69 0.67 0.65 0.61 0.55 0.52 0.50 0.49 0.49 0.51 0.48 0.40 0.45 0.42 0.44 0.42 0.43 0.44 0.42 0.42 0.43 0.45 0.44 0.56 0.48 0.38 0.37 0.49 0.57 0.60 0.66 0.68 0.70 0.81 0.86 0.85 0.81 0.81 0.82 0.80 0.77 0.77 0.78 0.77 0.75 0.76 0.79 0.80 0.83 0.84 0.87 0.90 0.92 0.94 0.99 1.02 1.07 1.11 1.14 1.16 1.16 1.17 1.17 1.16 1.14 1.12 1.11 1.11 1.09 1.09 1.08 1.07 1.05 1.02 1.03 1.04 1.04 1.05 1.05 1.07 1.08 1.08 1.09
0.75 0.71 0.70 0.70 0.71 0.71 0.66 0.59 0.56 0.50 0.48 0.51 0.50 0.38 0.43 0.38 0.44 0.41 0.43 0.40 0.42 0.40 0.44 0.43 0.42 0.41 0.36 0.35 0.43 0.51 0.56 0.62 0.66 0.69 0.76 0.85 0.85 0.81 0.82 0.84 0.83 0.78 0.75 0.75 0.75 0.73 0.74 0.77 0.78 0.79 0.82 0.85 0.86 0.90 0.93 0.95 0.97 0.99 1.04 1.08 1.13 1.15 1.17 1.17 1.16 1.14 1.12 1.09 1.08 1.07 1.07 1.07 1.07 1.06 1.07 1.05 1.05 1.06 1.06 1.06 1.06 1.04 1.05 1.06 1.06
0.69 0.65 0.61 0.65 0.61 0.64 0.68 0.54 0.53 0.49 0.41 0.44 0.43 0.43 0.45 0.39 0.42 0.40 0.44 0.36 0.43 0.41 0.45 0.41 0.41 0.41 0.39 0.40 0.43 0.54 0.58 0.57 0.59 0.62 0.75 0.78 0.82 0.81 0.82 0.83 0.82 0.77 0.75 0.72 0.71 0.72 0.74 0.75 0.78 0.81 0.83 0.85 0.87 0.89 0.92 0.95 0.96 0.98 1.03 1.08 1.11 1.15 1.16 1.14 1.13 1.11 1.09 1.08 1.08 1.09 1.09 1.09 1.10 1.10 1.11 1.10 1.08 1.09 1.08 1.08 1.09 1.10 1.08 1.09 1.10
0.61 0.60 0.56 0.55 0.58 0.57 0.55 0.59 0.47 0.44 0.42 0.39 0.39 0.47 0.44 0.38 0.41 0.38 0.43 0.33 0.42 0.38 0.44 0.39 0.40 0.40 0.39 0.42 0.44 0.55 0.57 0.58 0.60 0.70 0.74 0.77 0.76 0.79 0.81 0.80 0.77 0.74 0.73 0.67 0.70 0.72 0.74 0.76 0.78 0.79 0.81 0.84 0.86 0.90 0.94 0.95 0.96 0.99 1.04 1.08 1.10 1.13 1.15 1.14 1.12 1.10 1.08 1.10 1.10 1.11 1.11 1.11 1.13 1.14 1.15 1.13 1.12 1.12 1.11 1.10 1.11 1.13 1.14 1.15 1.16
0.68 0.68 0.63 0.61 0.63 0.63 0.63 0.57 0.48 0.45 0.42 0.40 0.38 0.38 0.39 0.41 0.43 0.37 0.43 0.42 0.38 0.36 0.41 0.38 0.40 0.38 0.41 0.46 0.48 0.59 0.61 0.61 0.65 0.70 0.76 0.76 0.77 0.78 0.79 0.74 0.77 0.76 0.71 0.68 0.71 0.74 0.76 0.76 0.76 0.79 0.82 0.82 0.87 0.92 0.94 0.96 0.97 0.99 1.03 1.08 1.12 1.14 1.16 1.16 1.13 1.11 1.12 1.12 1.13 1.13 1.14 1.16 1.16 1.16 1.14 1.16 1.17 1.16 1.15 1.16 1.15 1.16 1.18 1.19 1.19
0.75 0.72 0.69 0.68 0.68 0.69 0.67 0.55 0.51 0.56 0.46 0.45 0.42 0.32 0.37 0.40 0.44 0.31 0.45 0.42 0.36 0.34 0.41 0.35 0.38 0.34 0.48 0.46 0.54 0.62 0.64 0.67 0.67 0.76 0.79 0.78 0.79 0.79 0.77 0.73 0.79 0.78 0.74 0.72 0.72 0.75 0.77 0.75 0.77 0.79 0.80 0.82 0.90 0.93 0.94 0.95 0.97 0.99 1.05 1.09 1.12 1.14 1.15 1.15 1.13 1.12 1.13 1.13 1.14 1.15 1.16 1.17 1.18 1.19 1.20 1.20 1.20 1.20 1.19 1.19 1.19 1.20 1.21 1.22 1.20
0.83 0.82 0.75 0.73 0.67 0.63 0.59 0.49 0.52 0.51 0.43 0.34 0.36 0.38 0.39 0.45 0.45 0.37 0.40 0.38 0.35 0.34 0.38 0.32 0.37 0.40 0.51 0.45 0.60 0.64 0.68 0.68 0.70 0.79 0.81 0.81 0.81 0.81 0.71 0.75 0.78 0.78 0.77 0.78 0.78 0.78 0.77 0.76 0.76 0.81 0.81 0.87 0.94 0.96 0.96 0.98 1.00 1.03 1.08 1.10 1.13 1.16 1.16 1.16 1.14 1.12 1.14 1.15 1.15 1.17 1.18 1.19 1.20 1.21 1.22 1.24 1.24 1.23 1.21 1.20 1.19 1.19 1.18 1.18 1.18
0.77 0.73 0.71 0.65 0.54 0.51 0.49 0.59 0.54 0.46 0.38 0.46 0.47 0.47 0.44 0.44 0.42 0.38 0.36 0.34 0.34 0.33 0.35 0.32 0.41 0.42 0.47 0.51 0.65 0.65 0.67 0.65 0.72 0.77 0.80 0.80 0.77 0.73 0.73 0.77 0.78 0.78 0.78 0.80 0.79 0.79 0.78 0.77 0.78 0.81 0.82 0.93 0.99 1.00 1.01 1.03 1.06 1.07 1.10 1.13 1.16 1.17 1.17 1.17 1.16 1.14 1.14 1.15 1.16 1.17 1.17 1.19 1.22 1.23 1.23 1.25 1.26 1.25 1.24 1.23 1.21 1.21 1.21 1.24 1.27
0.86 0.83 0.77 0.69 0.70 0.62 0.57 0.47 0.45 0.44 0.48 0.49 0.53 0.57 0.49 0.43 0.41 0.37 0.34 0.30 0.33 0.31 0.33 0.36 0.46 0.44 0.46 0.56 0.64 0.62 0.66 0.70 0.74 0.78 0.80 0.77 0.74 0.74 0.75 0.77 0.77 0.78 0.79 0.80 0.80 0.79 0.78 0.77 0.76 0.75 0.79 0.91 0.97 1.00 1.03 1.06 1.10 1.13 1.15 1.17 1.20 1.19 1.19 1.20 1.21 1.22 1.20 1.18 1.17 1.18 1.19 1.20 1.20 1.22 1.23 1.24 1.25 1.25 1.25 1.26 1.27 1.26 1.26 1.27 1.27
0.83 0.78 0.75 0.71 0.65 0.62 0.57 0.47 0.44 0.47 0.44 0.40 0.44 0.44 0.44 0.43 0.39 0.42 0.39 0.33 0.30 0.30 0.33 0.41 0.48 0.45 0.48 0.59 0.62 0.63 0.70 0.69 0.73 0.78 0.80 0.78 0.75 0.74 0.75 0.76 0.78 0.78 0.78 0.79 0.80 0.79 0.77 0.76 0.76 0.70 0.79 0.88 0.93 0.98 1.02 1.05 1.10 1.16 1.21 1.24 1.25 1.26 1.26 1.28 1.29 1.28 1.26 1.24 1.22 1.22 1.23 1.22 1.20 1.21 1.22 1.23 1.23 1.23 1.23 1.23 1.24 1.25 1.24 1.23 1.23
0.85 0.79 0.75 0.69 0.63 0.51 0.46 0.43 0.40 0.42 0.41 0.37 0.41 0.43 0.40 0.41 0.40 0.40 0.40 0.36 0.31 0.30 0.36 0.44 0.46 0.46 0.51 0.58 0.61 0.63 0.69 0.68 0.72 0.77 0.80 0.81 0.77 0.76 0.74 0.75 0.75 0.75 0.76 0.77 0.77 0.77 0.77 0.74 0.70 0.69 0.78 0.86 0.91 0.96 0.99 1.03 1.08 1.14 1.21 1.26 1.27 1.30 1.32 1.33 1.33 1.32 1.31 1.31 1.29 1.26 1.24 1.23 1.22 1.21 1.21 1.21 1.19 1.19 1.18 1.19 1.19 1.18 1.17 1.17 1.17
0.75 0.65 0.65 0.70 0.71 0.62 0.52 0.50 0.50 0.49 0.47 0.41 0.37 0.38 0.39 0.41 0.42 0.41 0.38 0.35 0.31 0.31 0.39 0.44 0.44 0.49 0.56 0.57 0.61 0.63 0.65 0.69 0.73 0.77 0.81 0.83 0.80 0.77 0.75 0.76 0.74 0.73 0.74 0.74 0.74 0.76 0.77 0.72 0.67 0.67 0.75 0.83 0.88 0.92 0.96 1.02 1.06 1.11 1.17 1.25 1.28 1.30 1.35 1.37 1.38 1.37 1.36 1.34 1.31 1.27 1.25 1.23 1.22 1.22 1.21 1.19 1.18 1.19 1.17 1.16 1.18 1.18 1.18 1.17 1.18
0.86 0.79 0.69 0.63 0.60 0.57 0.50 0.42 0.44 0.44 0.42 0.47 0.48 0.43 0.40 0.44 0.40 0.39 0.36 0.33 0.30 0.34 0.41 0.45 0.44 0.52 0.58 0.57 0.61 0.62 0.65 0.67 0.72 0.76 0.81 0.83 0.81 0.78 0.77 0.76 0.73 0.72 0.73 0.72 0.72 0.74 0.73 0.69 0.68 0.64 0.72 0.79 0.85 0.89 0.94 1.01 1.06 1.09 1.13 1.18 1.23 1.31 1.39 1.39 1.40 1.41 1.40 1.38 1.33 1.30 1.27 1.25 1.23 1.21 1.20 1.18 1.18 1.18 1.18 1.17 1.17 1.16 1.16 1.16 1.14
0.83 0.79 0.74 0.64 0.54 0.42 0.47 0.48 0.50 0.46 0.45 0.46 0.43 0.46 0.45 0.46 0.42 0.38 0.36 0.32 0.30 0.36 0.44 0.46 0.45 0.54 0.60 0.57 0.60 0.60 0.62 0.66 0.71 0.75 0.78 0.81 0.82 0.81 0.77 0.76 0.72 0.71 0.71 0.70 0.72 0.72 0.69 0.67 0.64 0.61 0.68 0.75 0.81 0.85 0.89 0.95 1.03 1.08 1.11 1.16 1.21 1.27 1.35 1.40 1.42 1.42 1.42 1.41 1.37 1.32 1.28 1.26 1.24 1.22 1.20 1.19 1.18 1.18 1.17 1.16 1.15 1.15 1.14 1.13 1.12
0.84 0.77 0.71 0.66 0.58 0.51 0.52 0.50 0.43 0.38 0.44 0.48 0.46 0.41 0.43 0.45 0.42 0.38 0.32 0.30 0.30 0.38 0.45 0.45 0.47 0.54 0.60 0.60 0.60 0.60 0.62 0.66 0.71 0.75 0.77 0.78 0.79 0.78 0.76 0.75 0.71 0.70 0.71 0.72 0.72 0.69 0.67 0.65 0.61 0.58 0.63 0.71 0.77 0.81 0.84 0.87 0.92 0.98 1.04 1.09 1.15 1.22 1.30 1.36 1.38 1.40 1.41 1.41 1.41 1.37 1.33 1.29 1.26 1.24 1.21 1.19 1.18 1.17 1.16 1.16 1.16 1.15 1.14 1.13 1.12
Wind_Speed
2 2 2 2 2 2 1 1 1 1 1 2 2 1 2 3 4 4 4 5 7 7 8 9 10 10 11 12 13 13 14 15 15 16 16 17 18 18 18 19 19 19 20 20 20 21 21 21 21 22 22 22 23 23 23 23 23 22 22 23 23 23 23 23 24 24 24 24 25 25 25 25 25 25 26 26 26 27 28 28 28 28 28 28 28
2 1 1 1 1 1 1 1 1 0 1 2 2 3 4 4 5 5 6 7 8 8 9 10 11 12 12 13 14 14 15 16 16 17 18 18 19 19 19 20 20 21 21 21 21 21 22 22 22 22 23 23 23 24 24 23 23 23 23 24 24 24 24 25 25 25 25 25 25 25 25 26 26 25 25 26 26 27 28 28 29 29 30 29 29
1 2 2 1 1 1 1 1 0 1 2 3 2 3 4 5 6 7 7 8 9 9 10 11 12 13 14 14 15 15 16 17 17 18 19 19 19 19 20 20 20 21 21 21 21 22 22 22 22 22 23 23 24 24 24 24 24 24 24 24 24 24 24 25 25 25 25 25 24 25 25 26 26 25 25 26 27 27 28 28 28 28 29 29 30
2 2 2 2 1 1 1 1 1 2 4 4 4 4 5 6 7 8 8 9 9 10 11 12 13 14 14 15 15 15 16 17 18 18 18 19 19 19 19 20 20 20 21 21 21 21 21 21 22 22 22 23 23 23 23 24 24 24 24 24 24 24 24 24 25 25 25 25 24 25 26 26 26 26 26 27 27 27 27 27 28 28 28 29 30
2 2 2 2 1 1 1 1 1 3 5 5 5 6 6 7 7 8 9 9 10 11 12 12 13 14 14 15 15 15 16 17 17 17 18 18 19 19 20 20 20 20 20 20 20 21 21 21 21 21 22 22 22 23 23 24 24 24 24 25 25 25 26 26 26 26 27 27 26 26 27 27 28 28 28 28 28 28 28 28 28 28 28 29 29
2 2 2 1 1 1 1 1 2 4 5 5 6 6 7 7 8 8 9 10 10 11 12 13 13 14 14 15 15 16 17 17 17 18 19 19 20 20 21 20 20 20 20 21 21 21 21 21 21 22 22 22 23 23 23 24 25 25 25 26 26 27 27 27 27 28 28 28 28 28 28 28 28 28 28 29 29 29 29 29 29 29 29 29 29
2 2 2 1 1 1 2 3 4 5 5 6 6 7 7 8 9 9 10 11 11 12 12 13 13 14 15 15 16 17 18 18 17 18 19 20 21 22 22 21 21 21 21 21 22 22 22 22 22 23 23 23 24 24 25 25 26 26 27 27 27 28 28 28 28 28 29 29 29 29 29 29 29 29 29 29 29 30 30 29 29 29 29 29 29
2 2 1 1 1 2 3 3 4 5 6 6 7 8 8 9 9 10 11 11 12 12 13 14 15 15 15 16 17 18 19 18 18 19 20 21 21 22 22 22 22 22 22 22 22 22 22 22 23 23 24 24 25 26 26 27 27 27 28 28 28 29 29 29 29 29 30 30 30 30 30 31 31 30 30 30 30 30 29 29 30 29 29 30 29
2 1 1 1 2 2 3 4 5 5 6 7 8 8 9 9 10 10 11 12 13 14 14 15 16 16 16 17 18 19 19 18 18 19 20 20 21 22 22 22 22 22 22 21 22 22 22 22 23 24 25 26 26 27 27 27 27 27 27 28 28 29 30 30 30 30 30 30 31 31 31 31 31 31 31 31 31 31 30 30 30 30 30 30 30
1 0 0 1 2 3 4 5 6 6 7 8 8 9 9 10 11 11 12 13 14 15 16 16 16 16 17 17 18 19 19 18 18 19 20 20 21 21 22 23 22 22 21 21 21 22 22 23 23 25 26 26 27 27 28 28 28 28 28 29 29 29 30 30 30 30 30 31 31 31 31 31 31 31 32 32 32 32 32 32 32 31 31 31 31
1 1 2 3 3 4 5 6 6 7 8 8 9 10 11 11 12 13 13 14 15 16 16 16 16 16 17 17 18 19 18 17 18 19 19 20 21 22 22 22 22 21 21 21 22 22 23 24 24 26 26 27 28 28 29 29 30 30 30 30 31 30 30 30 30 30 30 31 31 31 31 31 31 31 32 32 32 32 32 32 32 32 32 32 31
1 2 3 4 4 5 6 7 8 8 9 9 10 11 12 12 13 14 14 15 16 16 16 15 16 17 18 18 18 18 17 17 18 18 19 20 22 22 22 22 21 21 21 22 23 23 24 25 25 26 27 28 28 29 30 30 31 31 31 31 31 31 30 30 30 30 30 30 30 30 31 31 31 31 31 31 31 32 32 32 32 32 32 32 32
2 3 4 5 6 6 7 7 8 9 9 10 11 11 12 13 14 14 14 15 16 15 15 16 17 18 18 18 18 17 17 17 18 18 20 21 22 23 22 22 21 22 22 23 23 24 25 26 27 27 28 29 29 29 30 30 30 30 30 30 30 30 30 30 31 31 30 30 30 30 30 31 31 31 31 31 31 31 31 31 31 31 31 32 32
3 4 5 6 6 7 8 8 9 10 10 11 11 12 13 13 14 14 15 16 15 15 16 17 18 18 18 18 17 17 16 17 18 19 20 21 22 23 22 22 22 22 23 24 25 26 27 27 28 29 29 29 29 29 29 29 29 29 29 28 28 29 29 29 30 30 29 29 29 29 29 30 30 30 30 30 31 31 31 31 30 30 30 31 32
4 5 5 6 7 7 8 9 10 10 11 12 12 13 13 13 14 14 15 15 15 16 17 18 18 18 18 17 17 17 17 18 19 20 21 22 23 23 23 22 23 23 24 25 26 27 28 28 29 29 29 29 28 28 28 27 27 27 27 27 27 27 27 27 27 27 27 26 27 28 28 28 29 29 29 29 30 30 30 30 30 30 30 31 31
4 5 5 6 7 8 8 9 10 11 11 12 13 13 13 13 14 15 15 15 16 17 17 18 18 18 18 18 18 18 18 18 19 20 21 22 23 23 23 24 25 25 26 27 27 28 28 29 29 29 29 28 27 26 26 26 26 26 26 26 26 26 26 25 25 25 24 24 25 26 26 27 27 28 28 29 29 30 30 30 30 30 30 29 30
4 5 5 6 7 8 9 10 11 11 12 12 13 13 13 13 14 15 15 16 16 17 17 18 18 18 18 18 18 18 18 18 19 20 22 23 23 24 24 25 26 26 27 27 28 28 29 29 29 28 27 26 24 24 25 25 25 25 24 24 24 23 23 23 23 23 23 23 23 24 24 25 25 26 27 27 28 28 28 29 29 28 28 28 27
4 5 6 6 7 8 9 10 11 11 12 12 12 13 13 14 14 15 16 16 17 17 17 18 18 18 18 18 19 19 19 18 20 21 22 23 24 24 25 26 26 27 27 27 28 28 29 29 28 26 25 24 23 23 24 24 24 23 22 22 21 21 21 21 21 20 21 21 21 21 22 22 23 23 23 24 25 25 25 26 26 26 26 26 26
5 6 6 7 8 9 10 11 11 12 12 12 12 13 13 14 15 15 16 17 17 17 17 18 19 19 18 19 19 19 19 19 20 21 22 24 25 25 26 27 27 27 27 28 28 28 28 27 26 24 23 22 22 22 23 23 23 22 21 21 20 20 20 19 19 19 19 19 19 19 19 19 19 20 20 21 22 22 21 21 22 22 23 23 23
6 6 7 8 8 9 11 11 12 12 11 12 12 13 13 14 15 16 16 17 17 17 18 19 19 19 19 19 19 19 19 20 20 22 23 25 25 26 27 27 27 27 27 27 27 27 27 26 24 22 21 21 22 22 23 23 22 21 21 20 19 19 18 18 18 19 19 18 18 18 18 18 17 18 18 18 19 18 18 18 18 18 19 20 20
6 6 7 8 9 10 11 11 11 11 11 12 12 13 14 15 16 16 16 17 17 17 18 18 19 18 18 19 19 19 20 20 21 22 24 25 26 27 27 27 27 27 27 27 27 27 26 25 23 22 22 22 22 23 23 23 21 20 20 19 18 18 18 17 18 18 18 17 17 17 17 17 17 17 17 17 17 16 16 16 16 16 17 18 19
6 7 7 8 9 10 10 11 11 11 11 12 13 14 15 15 16 16 16 17 17 17 18 18 18 18 18 19 19 20 20 21 22 23 25 25 26 27 27 28 28 27 27 27 26 26 25 23 23 23 23 23 24 23 23 22 20 19 19 18 18 18 17 17 18 18 17 17 17 17 17 17 17 17 17 16 16 15 15 15 14 15 15 16 17
7 7 8 8 9 9 10 10 11 11 12 13 14 14 15 15 16 16 16 16 17 17 18 18 18 18 19 19 19 20 21 22 23 24 24 25 26 28 28 28 28 27 27 27 26 24 23 23 23 24 24 24 24 23 22 21 20 19 19 19 18 18 18 18 18 18 18 18 18 18 18 17 17 17 17 16 15 15 14 14 14 14 15 16 16
7 7 7 8 8 9 10 10 11 12 13 13 14 14 15 15 15 16 16 15 16 17 18 18 18 19 19 19 20 21 21 23 24 24 24 25 27 28 29 29 28 27 26 26 24 23 23 23 23 23 23 23 23 22 21 20 20 20 20 20 19 19 19 19 19 18 18 18 18 18 18 18 17 17 17 17 16 16 15 15 15 14 15 15 15
7 7 7 8 8 9 10 10 11 12 13 13 14 14 14 14 15 16 15 15 16 17 18 18 18 19 19 19 20 22 23 24 24 24 25 27 28 29 29 28 28 27 26 24 23 22 23 23 23 22 22 22 22 21 20 20 20 20 20 20 19 19 19 20 20 20 20 19 19 19 19 19 18 18 18 18 18 17 17 16 16 16 15 15 15
6 7 7 8 9 9 10 10 11 12 12 13 13 13 13 14 15 16 15 15 16 17 18 18 18 19 19 20 21 23 24 24 24 25 27 28 28 28 28 27 26 26 25 23 22 22 22 22 22 21 22 22 21 21 21 21 20 20 20 19 19 19 19 20 20 20 20 20 20 20 19 19 19 19 19 19 18 18 17 17 17 17 17 16 16
6 7 8 8 9 10 10 11 12 12 12 13 12 13 14 14 14 15 15 16 17 17 18 18 19 19 20 21 22 24 24 24 25 26 27 27 27 26 26 25 25 25 23 22 21 21 21 21 21 21 21 21 21 20 20 20 20 19 19 18 19 19 19 20 20 19 19 19 19 19 20 19 19 19 19 19 19 18 18 18 17 17 17 17 16
7 7 8 9 10 10 10 11 12 12 12 13 13 13 14 14 14 15 16 17 17 17 17 18 19 20 21 22 23 24 24 24 25 26 26 26 25 25 25 24 24 23 22 22 22 21 21 21 21 21 20 20 20 20 20 20 20 19 19 19 19 19 19 19 19 19 19 19 19 19 19 19 19 19 19 19 19 19 19 19 18 18 17 17 17
7 7 8 9 9 9 10 11 12 12 12 12 13 13 13 13 14 15 16 16 16 17 17 18 19 20 21 22 23 24 24 25 26 26 26 25 25 24 23 23 22 22 22 23 22 21 21 21 20 20 21 21 21 21 21 21 21 21 20 20 20 19 19 19 19 19 19 19 19 19 19 19 19 19 19 19 19 19 19 19 19 19 18 18 17
7 7 8 9 9 9 10 11 12 11 11 11 11 11 12 13 14 15 15 16 16 17 17 18 19 20 21 22 23 23 24 25 25 25 25 25 24 23 23 23 22 22 22 22 21 20 20 21 20 21 21 21 21 22 22 22 22 22 22 21 21 20 20 19 19 19 20 20 20 20 20 20 20 20 20 20 20 20 20 20 19 19 19 18 18
7 7 8 9 9 9 10 10 10 11 11 11 11 11 12 13 14 15 15 15 16 17 18 18 19 20 21 22 23 23 24 25 24 24 24 24 24 24 24 24 23 22 21 21 20 20 20 20 21 21 22 22 22 23 23 23 23 23 23 22 21 21 20 20 20 20 20 20 20 20 20 20 20 21 21 21 21 21 21 20 20 19 19 18 18
6 7 8 9 9 9 10 10 10 10 10 10 11 11 12 13 14 15 15 16 16 17 18 18 19 20 21 22 23 24 24 24 23 23 24 24 24 24 24 24 23 21 20 19 19 19 20 21 21 22 22 23 23 24 24 24 24 24 23 22 22 21 21 20 21 20 20 20 20 21 21 21 21 21 21 21 21 21 21 20 20 19 19 18 18
6 7 8 8 9 9 9 9 9 9 9 9 10 12 13 13 13 14 14 15 16 17 18 18 19 20 21 22 23 24 23 22 22 23 24 24 24 24 23 22 21 20 20 19 19 20 21 21 22 22 23 24 24 24 24 24 24 23 23 22 22 21 21 21 20 20 20 20 20 20 20 20 21 21 22 22 21 21 20 20 19 18 17 17 17
7 7 7 8 8 8 8 8 8 8 8 9 10 12 13 13 13 13 14 14 16 17 17 18 19 20 21 22 23 24 22 21 23 24 24 24 23 23 22 20 20 20 19 20 20 21 22 22 23 23 24 24 24 24 24 24 23 23 23 22 21 21 21 20 20 19 19 19 19 19 20 20 20 20 20 21 20 20 19 18 18 17 16 16 16
6 7 7 7 7 8 7 8 8 8 8 9 10 12 12 13 13 13 14 15 16 17 18 18 19 19 20 22 24 23 22 22 23 24 23 23 22 22 21 20 19 20 20 20 21 22 22 22 23 24 24 24 24 24 24 23 23 23 23 22 22 21 21 20 19 19 19 19 19 19 20 20 20 19 19 19 19 18 18 17 17 17 16 15 15
6 6 6 6 7 7 7 7 8 8 8 9 10 11 12 12 12 13 14 14 16 17 17 18 19 18 19 22 24 23 22 23 23 23 23 22 21 20 20 19 20 21 21 21 22 23 22 23 24 24 25 25 25 25 24 23 22 23 23 23 22 22 21 20 19 19 19 19 19 19 19 19 18 18 18 18 17 17 17 17 16 15 15 15 14
5 5 6 6 7 7 7 7 8 8 8 9 10 11 11 11 12 13 13 14 15 16 17 18 18 18 20 23 24 22 22 23 23 22 22 21 20 20 20 20 21 21 21 22 23 23 23 24 24 25 25 25 25 25 24 23 22 22 23 23 22 22 21 20 20 19 19 19 19 18 18 18 17 17 17 17 17 17 16 16 15 14 14 13 13
5 5 6 6 6 7 7 7 7 8 8 9 10 10 11 11 12 12 13 14 15 16 17 18 18 18 20 23 24 22 22 23 22 22 21 21 20 20 20 21 21 21 22 23 23 24 24 25 25 26 26 26 26 26 25 23 22 23 23 23 22 22 21 20 20 20 19 19 19 18 18 17 17 17 16 16 16 16 15 14 14 13 13 12 11
5 6 6 6 6 6 6 6 7 8 8 9 9 10 10 11 12 12 13 14 15 15 16 17 18 18 20 22 23 22 22 22 22 22 22 21 20 20 21 21 22 22 22 23 24 25 25 26 27 27 28 28 27 27 25 24 23 23 23 22 22 21 20 20 20 19 19 19 18 17 17 16 16 16 17 16 16 15 14 13 13 11 10 10 8
5 6 6 5 5 6 6 6 7 7 8 8 9 10 10 10 11 12 12 13 14 15 16 17 17 18 20 22 22 22 22 21 21 22 22 21 20 20 21 22 22 23 23 23 24 25 26 27 28 29 29 29 28 27 26 26 24 23 22 22 21 21 20 19 19 19 18 17 17 16 16 16 16 16 17 16 15 14 13 12 11 9 7 7 6
5 5 5 5 5 5 5 5 6 7 8 8 9 9 10 10 11 12 12 13 14 15 16 16 17 18 19 21 22 22 22 21 21 22 21 20 20 21 22 22 22 23 23 24 25 26 27 28 29 30 30 30 29 27 27 27 25 22 21 21 21 20 19 18 18 17 17 16 15 15 16 17 17 17 17 16 15 14 12 11 10 8 6 5 4
5 5 5 5 5 5 5 5 6 7 7 8 8 9 9 9 10 11 11 12 13 14 15 16 17 17 18 19 20 22 21 21 22 22 21 20 20 21 22 22 23 23 23 25 26 27 28 29 30 31 31 31 29 27 27 27 25 23 21 20 19 18 18 18 17 16 16 15 15 15 16 17 17 17 17 17 15 13 12 11 10 8 7 6 5
4 4 4 5 5 5 5 6 6 6 7 8 8 8 9 9 10 10 11 12 13 14 14 15 16 17 17 18 19 20 21 21 21 22 21 20 20 21 22 23 23 23 24 25 27 28 29 30 31 32 33 32 29 28 28 27 25 23 21 19 18 17 17 17 16 16 15 14 15 15 15 16 17 17 17 17 16 13 12 11 10 10 9 9 8
3 3 3 4 4 5 5 5 5 6 7 7 7 7 8 9 9 10 10 11 12 13 14 15 16 17 17 18 19 20 20 20 21 21 21 20 20 21 22 23 24 24 24 26 27 29 30 31 32 33 34 33 31 30 29 28 26 23 20 18 17 16 16 16 15 15 14 14 14 15 15 16 15 15 16 16 16 15 13 12 11 11 11 11 11
3 3 3 4 4 4 5 5 5 6 7 7 6 6 7 8 8 9 10 11 12 12 13 15 15 16 16 17 18 19 19 20 20 20 20 20 20 21 22 23 24 24 25 26 27 29 31 32 33 35 35 34 33 32 31 30 27 24 20 18 17 16 16 15 14 13 13 13 13 14 15 15 15 14 14 15 16 16 15 14 14 13 13 13 13
4 3 3 4 4 4 4 5 5 6 6 7 6 6 7 8 8 8 9 10 11 12 13 14 15 15 16 17 18 18 19 19 19 20 20 19 20 21 22 22 23 24 25 26 27 29 31 32 33 35 36 35 35 35 34 32 28 25 21 18 16 16 15 15 14 13 12 12 12 13 14 14 14 14 14 14 14 15 15 15 15 14 14 14 13
3 3 4 4 4 4 4 4 5 5 5 6 6 6 7 7 7 7 8 9 10 11 12 13 14 15 15 16 17 18 18 18 18 19 19 19 20 20 21 22 23 24 25 26 27 29 30 32 33 36 36 36 36 38 38 35 31 27 23 20 17 15 15 15 14 13 12 12 12 12 13 13 14 14 14 14 14 14 15 15 15 15 15 14 14
3 3 4 4 4 3 3 4 5 5 5 5 6 6 6 6 7 7 8 8 9 10 11 13 13 14 15 15 16 17 17 17 18 18 19 19 19 20 20 21 22 24 25 26 27 28 30 31 33 36 37 37 38 39 40 38 34 29 26 22 18 16 16 15 14 14 13 13 13 13 13 13 14 14 15 15 15 15 15 15 15 15 15 15 15
3 3 4 4 4 3 3 4 4 5 5 5 5 5 5 6 6 6 7 8 8 9 11 12 13 13 14 15 16 16 17 17 17 18 19 19 19 19 20 20 21 23 24 25 27 28 29 31 33 35 37 37 38 39 40 40 37 33 29 25 22 19 17 15 15 15 14 14 13 13 14 14 14 14 15 15 15 15 15 15 15 15 15 15 15
4 4 4 4 3 3 4 4 4 5 5 5 5 5 5 5 5 6 6 7 8 9 10 11 12 13 13 14 15 16 16 17 17 17 18 18 19 19 19 20 21 22 24 25 26 27 29 30 32 34 36 37 38 39 39 39 38 36 33 30 27 23 20 18 16 16 15 15 14 14 14 15 15 15 15 15 15 15 15 15 15 15 15 16 16
4 4 3 3 3 3 3 4 4 4 5 5 5 5 5 5 5 5 6 6 7 8 9 10 11 12 13 13 14 15 15 16 17 17 17 18 18 18 19 19 20 21 23 24 25 26 28 29 31 33 35 35 37 38 38 39 38 37 37 36 33 30 26 23 20 18 17 16 15 15 15 15 15 15 14 14 15 15 15 15 15 15 15 16 16
Wind_Direction
118 113 109 111 110 109 105 80 36 357 332 327 319 302 316 323 318 324 328 319 314 313 313 312 309 308 310 309 308 308 309 311 312 312 311 308 306 304 303 302 301 299 299 298 297 296 296 296 296 295 294 293 292 291 291 290 287 286 285 285 284 282 281 279 277 279 279 279 279 278 278 277 276 275 272 271 272 272 272 272 272 272 271 270 268
114 115 112 109 104 99 80 40 13 332 315 316 302 303 324 337 331 326 323 318 316 313 313 313 310 309 309 308 307 307 309 311 311 311 311 310 308 305 303 303 302 301 300 299 299 298 298 298 298 296 294 293 293 294 294 293 290 288 287 285 284 282 281 281 280 279 279 278 278 278 277 277 276 276 274 272 273 274 274 274 274 272 271 271 270
118 119 108 102 103 93 60 32 40 337 321 323 331 334 338 337 330 326 322 318 316 313 311 312 311 310 309 308 307 307 308 309 310 311 312 311 310 308 306 305 304 303 302 301 301 300 300 299 298 297 295 295 295 294 293 291 290 289 288 288 287 284 283 283 282 281 279 278 278 278 278 277 277 276 276 275 274 275 275 275 274 273 272 271 270
121 117 109 108 109 82 55 44 20 346 335 341 353 348 336 329 325 324 319 316 314 312 311 312 311 311 311 310 309 309 310 311 312 314 315 315 314 312 310 308 307 305 304 304 303 303 302 301 299 298 297 296 296 294 292 292 291 291 292 292 290 289 287 286 285 284 283 283 283 281 280 279 279 278 277 276 274 274 274 274 273 272 272 271 270
121 116 112 109 96 67 49 37 3 349 342 343 343 337 332 329 325 323 321 320 318 316 315 315 315 315 315 314 313 313 313 313 314 316 317 317 317 316 313 310 309 308 306 306 306 305 304 303 301 301 299 298 297 296 295 296 294 294 294 293 291 290 290 290 288 287 286 286 286 284 281 280 279 279 278 277 276 275 274 273 272 272 271 271 270
126 125 121 108 86 57 31 9 354 349 345 340 335 332 330 327 324 323 324 322 321 320 319 319 319 318 318 317 316 315 315 315 314 315 317 318 318 318 316 313 311 310 308 307 306 305 304 303 302 301 300 299 298 298 297 297 295 293 293 293 291 290 290 290 289 288 287 286 285 284 282 280 279 279 278 277 276 275 275 274 273 272 272 271 270
132 127 116 103 66 32 12 355 347 343 341 337 334 332 328 325 323 323 322 322 322 322 322 321 321 320 319 318 317 316 316 315 314 315 317 317 317 317 316 314 312 310 309 307 305 303 302 302 301 300 299 298 297 297 296 296 294 293 291 291 290 289 289 288 288 287 286 285 284 283 282 280 279 278 277 276 276 275 275 275 274 273 272 271 271
130 121 105 81 28 5 349 342 338 335 334 334 333 332 330 327 325 324 324 324 323 322 322 322 321 321 320 319 317 317 316 315 314 315 316 316 317 316 316 315 313 310 308 306 305 303 302 302 301 300 299 298 297 297 296 295 294 293 292 291 290 290 289 288 287 287 286 285 284 283 282 281 279 279 278 276 276 275 275 275 274 273 272 271 270
128 124 93 14 347 336 330 328 330 330 332 333 332 331 330 328 327 326 325 324 323 322 322 322 321 321 320 320 320 319 317 315 315 316 316 317 317 317 316 316 314 311 309 307 306 305 304 303 302 301 300 300 300 299 298 296 295 294 293 292 291 291 290 289 288 287 286 286 285 284 282 281 280 279 278 277 276 275 274 274 273 272 272 271 270
148 181 296 324 321 320 323 324 327 328 329 330 329 328 327 326 326 325 324 324 324 322 322 323 322 322 322 322 322 321 318 316 317 319 319 319 318 317 317 316 315 313 311 309 308 306 305 304 303 302 301 301 301 300 299 298 297 295 294 293 292 291 290 290 289 287 286 286 285 284 283 281 281 280 278 277 277 275 274 273 272 272 271 271 270
201 261 294 309 310 315 321 323 324 325 326 328 327 326 326 325 324 324 324 324 324 323 323 323 323 324 324 323 323 323 321 320 321 321 322 321 321 320 319 318 316 314 312 310 308 307 306 305 304 304 303 302 301 301 300 299 298 296 295 294 293 292 291 289 288 287 286 285 284 284 283 282 282 281 280 279 278 276 275 274 273 272 271 269 269
258 284 295 303 307 312 317 320 323 324 325 326 326 326 326 326 325 326 326 326 326 326 326 326 326 327 327 326 325 325 324 324 324 323 323 324 323 322 321 319 317 316 314 312 310 309 308 307 306 305 304 303 302 301 301 300 298 297 296 295 294 293 291 290 289 288 286 285 284 283 282 282 282 281 280 280 279 278 277 275 274 273 271 269 268
283 294 297 302 307 311 314 318 321 322 322 323 325 326 326 326 327 328 328 329 330 329 329 329 328 329 329 328 328 327 325 325 325 324 324 324 324 324 322 320 318 317 315 313 312 311 309 308 307 306 305 304 303 302 302 301 300 298 297 296 294 293 292 290 289 289 287 286 284 283 282 282 282 281 280 280 279 278 277 276 275 273 272 270 269
288 295 300 305 311 312 313 316 318 319 319 321 323 326 327 327 329 329 329 331 332 331 331 330 330 330 331 330 330 328 326 326 325 324 325 325 325 324 322 321 319 317 315 314 313 311 310 309 308 307 306 305 305 304 303 302 301 300 299 297 296 295 294 293 291 291 289 287 285 285 284 283 282 281 281 280 279 278 277 276 275 274 273 271 270
293 299 305 310 314 314 314 316 317 317 319 321 324 326 328 329 330 332 332 333 332 332 331 332 332 333 332 331 330 328 326 325 325 325 326 326 326 325 323 322 320 318 317 315 314 312 311 310 309 308 307 306 306 306 305 305 304 303 301 300 299 297 296 295 295 294 292 289 288 287 286 285 284 283 282 281 280 279 277 276 275 275 274 273 272
301 306 311 314 315 316 316 316 317 318 321 322 324 327 330 330 331 332 333 333 332 331 332 332 333 334 332 330 329 327 324 324 325 326 326 326 327 326 325 323 322 320 318 317 316 314 313 312 310 309 308 308 308 308 308 308 307 305 304 302 301 300 299 299 298 296 294 293 291 290 290 288 287 285 284 282 281 280 279 277 275 274 274 274 274
305 310 313 317 318 319 320 319 320 322 323 324 327 330 331 331 331 332 332 332 332 332 333 334 334 334 333 331 328 326 325 324 325 325 326 327 328 327 326 324 322 321 320 319 318 317 315 313 312 311 310 309 308 309 310 310 309 308 306 304 303 303 303 302 301 300 298 296 294 294 293 292 290 289 287 285 283 282 280 278 276 274 273 273 274
307 309 313 318 320 323 324 323 324 325 325 326 329 331 331 331 331 331 331 331 332 333 335 335 335 334 332 329 327 326 326 325 325 325 326 328 329 328 327 325 323 322 322 321 320 319 317 316 314 313 312 310 309 310 312 313 313 311 309 306 305 305 306 306 306 304 303 301 299 297 296 295 294 294 292 290 288 286 283 279 276 273 272 272 272
307 310 315 319 321 324 327 327 327 328 328 329 330 331 331 332 331 331 331 332 333 334 335 335 334 332 330 328 328 328 327 326 324 325 327 329 329 328 327 326 325 324 323 323 322 321 320 319 318 315 313 311 310 311 312 315 315 314 312 309 308 309 310 310 310 310 309 307 305 304 302 302 301 300 298 296 293 291 288 284 279 274 272 271 270
308 312 315 318 321 325 328 328 328 328 329 330 331 332 332 332 331 331 332 332 332 333 333 333 333 332 330 329 328 328 327 326 325 326 327 328 328 328 328 327 326 325 324 323 323 323 323 322 321 319 316 314 314 313 313 314 314 313 313 312 311 313 314 314 314 314 313 311 310 309 308 308 307 306 305 303 299 296 293 290 283 277 274 272 271
310 313 314 317 322 327 329 329 329 329 329 330 332 332 331 331 331 332 332 333 333 333 333 333 332 331 330 329 329 328 328 327 326 326 327 327 327 328 328 328 327 326 324 324 324 324 324 324 323 322 321 319 318 316 315 313 312 311 312 312 312 313 314 315 315 316 316 314 314 313 313 312 311 310 309 308 305 302 298 294 288 281 277 274 273
308 310 312 317 322 327 329 330 330 330 329 331 332 331 331 331 332 333 333 334 335 335 334 333 332 331 330 330 329 329 328 328 327 327 327 326 326 327 328 328 327 326 325 325 325 325 324 324 324 323 323 321 319 317 315 313 311 310 311 311 310 310 311 312 314 315 315 314 313 313 313 314 313 312 312 311 309 306 302 298 292 287 282 278 276
306 309 313 318 323 327 329 331 331 330 329 330 330 330 331 332 333 334 334 335 336 336 335 333 332 331 331 331 331 330 329 329 328 328 328 327 327 328 328 327 327 327 326 326 326 325 325 325 324 323 322 322 320 318 316 314 312 311 310 309 308 307 307 308 309 309 309 310 310 309 310 311 311 311 311 311 310 309 306 302 297 291 287 284 281
306 311 314 317 323 327 328 329 329 328 328 327 328 330 332 333 336 336 335 335 336 336 335 333 332 332 333 333 332 331 330 330 330 330 330 329 329 329 328 328 328 328 328 327 327 326 326 326 325 324 323 323 322 320 318 316 314 312 310 308 306 305 305 305 304 304 304 305 305 306 306 307 308 307 307 307 307 306 305 304 300 297 293 291 288
305 310 313 316 320 321 321 324 326 327 327 327 328 331 332 334 337 338 336 335 337 337 336 335 335 335 335 335 333 331 331 331 331 332 331 330 330 330 329 330 330 330 330 329 328 327 327 327 326 326 326 325 324 323 321 318 315 313 311 309 307 306 305 304 304 303 302 302 303 303 303 304 304 304 304 305 304 303 302 301 299 297 295 293 291
303 307 309 311 314 315 315 319 323 325 327 327 330 335 336 336 339 339 338 338 339 338 338 337 336 336 335 334 333 332 333 333 332 331 331 331 331 332 332 332 333 333 333 332 331 331 331 330 329 329 329 328 326 325 322 320 317 314 312 311 310 309 307 306 305 304 303 303 303 302 302 302 301 301 302 303 303 302 300 299 297 295 294 293 291
300 303 305 309 313 315 317 321 324 327 330 331 335 340 340 340 341 341 340 339 338 338 338 338 337 336 335 335 334 334 335 334 334 333 334 333 334 334 335 335 335 336 337 336 336 335 334 332 332 332 331 330 329 328 327 325 324 321 318 316 314 312 310 308 307 305 305 304 303 304 304 303 301 301 302 302 301 300 300 299 298 296 295 293 291
297 302 307 313 316 317 320 325 327 329 331 333 335 337 337 338 340 341 340 340 339 338 339 339 339 338 337 337 337 337 337 336 336 336 336 336 336 336 337 337 338 339 340 340 338 336 336 336 336 336 337 337 337 337 336 334 332 329 326 323 320 316 313 311 310 308 307 306 305 304 305 304 303 302 302 301 299 298 297 297 297 296 295 293 290
298 305 309 312 314 317 322 326 327 328 331 333 335 336 337 339 340 340 341 343 343 342 342 341 341 340 340 340 340 339 339 338 338 338 337 337 338 338 339 340 340 340 339 338 337 337 338 339 340 341 343 343 342 341 339 337 334 331 328 325 323 320 316 314 312 311 310 308 307 307 306 305 304 303 302 300 299 298 296 295 294 294 293 291 288
298 308 316 319 321 325 327 326 326 329 334 337 336 336 338 341 342 341 342 343 345 345 344 344 343 342 342 343 343 342 341 340 339 340 341 341 342 342 342 341 340 338 336 336 337 339 341 342 343 344 344 343 341 340 338 337 335 333 330 327 324 322 319 315 313 312 311 309 308 308 308 306 305 304 303 301 299 298 296 295 294 293 291 288 286
307 314 319 322 327 329 329 328 328 330 332 334 335 334 336 338 339 341 343 344 344 345 345 344 343 343 344 345 345 344 343 343 343 343 345 345 345 345 343 342 341 340 339 340 342 343 344 344 344 343 343 342 342 341 340 339 338 336 333 330 327 324 321 319 316 314 312 311 310 309 308 307 306 305 304 302 301 299 297 296 294 291 289 287 285
314 316 316 318 322 325 326 329 332 332 332 334 336 338 338 337 337 339 341 342 343 344 344 343 343 343 344 345 346 346 346 345 346 347 348 347 346 345 344 344 344 344 345 346 346 346 346 345 344 344 344 344 343 343 343 342 340 338 336 333 330 328 325 323 321 318 316 314 313 312 311 310 309 307 306 304 303 301 299 297 295 292 289 287 285
312 316 318 319 320 323 326 330 333 335 335 335 338 341 342 341 339 339 339 340 341 342 342 342 342 344 345 345 346 346 346 347 348 348 348 347 347 346 347 347 347 348 350 350 349 347 347 346 346 347 347 346 345 345 344 343 341 340 338 337 335 333 330 328 326 323 321 319 317 316 314 313 311 309 308 307 305 304 302 300 297 295 293 290 287
316 320 324 325 326 329 333 335 335 335 337 339 341 342 342 342 342 342 343 342 342 343 343 343 343 345 346 346 346 346 347 348 349 348 348 348 348 349 350 351 351 352 352 351 350 349 348 349 350 350 349 347 346 345 343 343 343 343 342 340 339 337 334 331 329 327 325 322 320 319 318 316 314 312 310 309 307 305 303 300 298 296 295 293 290
324 326 330 332 333 333 335 336 336 336 339 343 344 342 342 343 344 344 345 346 346 347 347 347 347 347 347 347 347 348 348 349 349 349 349 349 350 352 354 355 355 354 353 352 352 352 352 352 351 349 347 346 345 344 344 344 344 344 344 343 341 340 338 336 333 331 328 325 323 321 320 318 317 315 314 313 310 308 305 302 298 294 291 289 290
327 330 332 334 337 340 341 341 342 342 342 344 345 344 343 344 345 345 347 348 348 349 350 350 351 351 349 349 350 350 350 351 352 351 351 352 354 356 358 357 355 354 354 354 354 354 353 352 349 347 346 346 345 345 345 344 344 344 344 344 343 342 339 337 335 333 332 330 327 325 323 321 319 317 315 313 311 310 308 307 304 298 292 286 285
328 330 332 334 340 344 346 346 347 347 345 344 344 345 346 346 346 348 348 349 350 351 352 353 355 354 353 353 355 355 355 355 354 355 355 356 358 359 359 357 356 356 356 356 355 355 353 350 348 347 346 346 346 346 345 344 343 344 344 344 343 341 339 338 338 338 337 335 334 332 330 328 325 323 320 316 314 312 310 309 308 305 299 290 282
324 326 327 330 333 336 338 342 344 345 345 344 343 345 348 348 349 350 351 351 353 354 355 356 358 358 358 358 359 360 359 358 358 359 1 2 1 1 0 358 358 359 359 357 356 355 353 351 350 349 348 348 348 347 346 345 343 343 343 343 342 342 342 342 343 343 342 341 340 339 338 337 336 335 332 328 324 321 317 314 311 306 302 297 284
322 326 326 327 332 334 336 341 344 345 345 346 346 347 349 350 351 352 353 354 355 356 357 359 1 2 2 1 3 4 3 2 3 5 5 5 4 3 2 1 2 3 2 360 359 358 356 355 354 352 351 351 350 348 347 346 344 343 343 344 343 343 344 346 347 347 346 345 345 345 346 346 346 346 343 339 335 332 328 324 319 312 306 303 291
327 331 327 324 329 335 337 342 345 346 346 347 348 349 350 352 353 354 354 356 357 358 359 2 4 5 4 5 6 7 6 6 7 8 7 7 7 6 5 6 7 6 5 3 2 1 360 358 357 355 355 354 352 350 349 348 346 344 344 344 344 344 346 348 349 349 348 348 350 353 354 354 353 352 349 345 343 343 343 341 338 331 320 315 304
324 332 334 331 330 332 335 340 344 346 347 347 348 349 350 352 354 355 355 358 359 359 1 4 6 6 6 8 9 9 9 10 11 10 9 10 10 9 9 10 10 9 8 7 5 4 3 2 360 359 358 356 354 351 349 349 349 347 345 344 345 346 348 351 352 351 351 353 356 359 0 360 359 357 355 353 353 356 360 1 1 358 356 353 348
312 318 325 329 328 330 336 341 344 347 348 347 348 350 351 352 355 356 358 0 1 1 4 7 8 8 9 10 10 10 12 15 15 14 14 15 13 12 13 14 13 12 11 10 9 8 7 5 4 3 1 359 357 354 352 351 350 349 347 346 346 347 350 353 354 353 354 357 0 3 4 5 5 5 4 4 6 9 13 16 19 22 27 35 50
316 318 321 327 331 336 342 343 343 344 347 347 349 351 353 354 356 358 1 3 4 4 6 8 9 10 12 12 11 12 16 17 16 16 18 18 16 16 17 17 17 16 15 13 12 12 10 9 8 6 4 2 1 358 356 354 352 350 349 348 348 349 353 355 355 356 358 2 5 6 7 8 10 10 10 13 18 23 27 32 37 41 47 55 65
309 316 323 331 335 337 341 342 341 341 344 345 345 348 353 356 359 2 4 4 5 6 7 9 11 12 13 13 13 15 18 19 17 17 19 20 19 18 19 18 18 18 16 15 14 14 13 12 11 9 7 6 5 3 0 358 356 354 353 352 352 353 355 357 358 358 1 6 9 10 10 11 13 16 19 25 32 37 39 43 48 53 59 64 67
294 308 323 337 340 337 338 341 340 336 337 338 338 343 352 358 1 3 5 6 6 7 9 11 12 14 14 14 14 16 18 19 18 18 19 19 19 18 17 17 18 19 17 16 16 15 15 14 13 11 10 10 9 6 4 1 360 359 359 358 359 360 0 1 2 3 4 9 14 16 15 16 19 24 30 36 40 45 48 51 55 61 66 69 71
300 317 327 336 342 341 340 341 338 335 339 343 344 346 353 359 1 3 5 7 7 8 9 11 13 14 15 15 15 17 18 19 18 18 19 18 17 17 17 17 19 20 19 18 17 17 16 16 15 14 14 14 12 10 8 6 6 6 6 5 5 5 5 5 7 8 11 15 19 21 22 24 27 32 38 42 45 49 52 55 58 62 65 69 72
310 321 323 327 333 335 337 339 337 335 339 344 345 347 352 359 2 4 6 7 8 9 11 12 13 14 15 15 15 16 18 18 17 17 18 17 17 17 18 19 20 21 21 20 19 18 18 17 17 17 18 18 16 14 13 12 12 12 11 10 10 10 10 11 14 16 19 22 25 27 30 33 36 40 44 48 50 53 56 57 60 63 66 68 72
303 316 321 324 325 328 331 332 329 328 332 338 343 348 353 359 3 5 6 7 8 10 11 12 13 14 16 15 15 16 17 17 16 16 17 17 18 19 20 21 22 22 23 22 20 19 19 19 18 19 20 20 19 18 18 18 18 19 18 17 16 14 14 18 23 26 28 31 33 35 37 40 43 46 49 52 55 57 59 62 64 67 69 71 74
302 314 321 323 327 333 334 329 327 328 330 333 338 344 349 357 3 6 5 6 8 11 12 13 13 15 16 15 15 16 17 17 16 16 17 19 20 21 22 22 22 23 23 22 21 20 20 20 20 20 22 23 23 22 22 23 24 25 26 26 24 22 24 28 33 35 37 39 41 42 43 45 47 51 54 56 58 61 62 64 66 68 70 72 74
316 320 325 327 327 326 326 326 329 331 329 329 334 341 348 355 3 5 4 6 9 10 11 13 14 15 16 16 15 16 17 17 17 17 18 20 22 22 22 23 23 23 23 22 21 20 21 22 22 22 23 25 25 25 25 26 28 30 32 33 33 33 36 39 40 40 40 42 45 47 49 50 52 54 56 58 60 61 63 66 68 69 71 73 75
304 308 321 328 323 317 317 320 322 325 326 328 333 340 346 354 0 2 2 5 7 9 11 13 15 16 17 17 16 16 17 18 17 18 19 21 22 23 23 22 23 23 23 22 21 21 22 23 23 24 25 26 27 27 28 29 30 33 36 38 40 41 42 43 43 44 44 46 48 50 52 53 55 57 58 60 61 62 63 65 68 71 72 74 77